Weather History for Penn Yan, NY

Change the Weather History Date:

Tuesday, January 1, 2013

  Actual Average (KITH) Record (KITH)
Temperature  
Mean Temperature 23 °F -  
Max Temperature 34 °F 34 °F 61 °F (1966)
Min Temperature 12 °F 16 °F -16 °F (1970)
Degree Days  
Heating Degree Days 42    
Moisture  
Dew Point 15 °F    
Average Humidity 71    
Maximum Humidity 92    
Minimum Humidity 60    
Precipitation  
Precipitation 0.00 in - - ()
Sea Level Pressure  
Sea Level Pressure 29.96 in    
Wind  
Wind Speed 9 mph (WNW)    
Max Wind Speed 13 mph    
Max Gust Speed 23 mph    
Visibility 8 miles    
Events Snow    
Averages and records for this station are not official NWS values.
T = Trace of Precipitation, MM = Missing Value Source: NWS Daily Summary

Daily Weather History Graph

Daily Weather History Graph

Search for Another Location

Airport:

Trip Planner

Search our weather history database for the weather conditions in past years. The results will help you decide how hot, cold, wet, or windy it might be!

Date:

Astronomy

Jan. 01, 2013 Rise Set
Actual Time 7:38 AM EST 4:45 PM EST
Civil Twilight 7:06 AM EST 5:17 PM EST
Nautical Twilight 6:30 AM EST 5:53 PM EST
Astronomical Twilight 5:56 AM EST 6:27 PM EST
Moon 9:20 PM EST (1/1) 9:43 AM EST (1/1)
Length of Visible Light 10h 11m
Length of Day
9h 07m
Waning Gibbous, 83% of the Moon is Illuminated
Jan 1
Waning Gibbous
Jan 4
Last Quarter
Jan 11
New
Jan 18
First Quarter
Jan 26
Full

Hourly Weather History & Observations

Time (EST) Temp. Windchill Dew Point Humidity Pressure Visibility Wind Dir Wind Speed Gust Speed Precip Events Conditions
12:53 AM 34.0 °F 28.0 °F 26.1 °F 73% 29.86 in 10.0 mi WSW 6.9 mph - N/A   Overcast
2:19 AM 33.8 °F 24.8 °F 23.0 °F 65% 29.85 in 10.0 mi West 12.7 mph 23.0 mph N/A   Overcast
2:53 AM 33.1 °F 25.5 °F 21.9 °F 64% 29.90 in 10.0 mi WNW 9.2 mph - N/A   Overcast
4:01 AM 32.0 °F 24.8 °F 21.2 °F 64% 29.87 in 10.0 mi West 8.1 mph - N/A   Overcast
4:53 AM 30.9 °F 22.8 °F 21.0 °F 67% 29.91 in 10.0 mi WNW 9.2 mph - N/A   Overcast
5:19 AM 30.2 °F 21.3 °F 19.4 °F 64% 29.88 in 10.0 mi NW 10.4 mph - N/A   Overcast
5:53 AM 28.9 °F 20.4 °F 19.9 °F 69% 29.92 in 10.0 mi NW 9.2 mph - N/A   Overcast
6:53 AM 28.9 °F 20.4 °F 19.0 °F 67% 29.94 in 10.0 mi WNW 9.2 mph - N/A   Overcast
7:53 AM 28.0 °F 21.7 °F 17.1 °F 63% 29.95 in 10.0 mi WNW 5.8 mph - N/A   Overcast
8:53 AM 27.0 °F 18.7 °F 15.1 °F 61% 29.97 in 10.0 mi West 8.1 mph 17.3 mph N/A   Overcast
9:53 AM 27.0 °F 17.3 °F 15.1 °F 61% 29.98 in 10.0 mi WNW 10.4 mph 18.4 mph N/A   Overcast
10:48 AM 26.6 °F 19.1 °F 15.8 °F 64% 29.96 in 10.0 mi West 6.9 mph 18.4 mph 0.00 in   Overcast
10:53 AM 27.0 °F 17.3 °F 16.0 °F 63% 29.99 in 10.0 mi WNW 10.4 mph 17.3 mph 0.00 in   Overcast
11:30 AM 24.8 °F 13.4 °F 19.4 °F 80% 29.95 in 2.0 mi North 12.7 mph 18.4 mph 0.00 in Snow Light Snow
11:39 AM 23.0 °F 11.1 °F 17.6 °F 80% 29.95 in 1.0 mi NNW 12.7 mph 18.4 mph 0.00 in Snow Light Snow
11:45 AM 23.0 °F 12.4 °F 17.6 °F 80% 29.95 in 0.8 mi NNW 10.4 mph 17.3 mph 0.00 in Snow Light Snow
11:53 AM 23.0 °F 11.7 °F 18.0 °F 81% 30.00 in 0.8 mi NW 11.5 mph 17.3 mph 0.00 in Snow Light Snow
12:13 PM 23.0 °F 13.1 °F 17.6 °F 80% 29.96 in 1.0 mi NW 9.2 mph - 0.00 in Snow Light Snow
12:24 PM 23.0 °F 12.4 °F 17.6 °F 80% 29.94 in 1.0 mi NNW 10.4 mph - 0.00 in Snow Light Snow
1:03 PM 23.0 °F 11.1 °F 15.8 °F 74% 29.95 in 2.0 mi NW 12.7 mph - 0.00 in Snow Light Snow
1:09 PM 23.0 °F 13.1 °F 17.6 °F 80% 29.94 in 1.8 mi NW 9.2 mph - 0.00 in Snow Light Snow
1:16 PM 23.0 °F 11.1 °F 15.8 °F 74% 29.94 in 2.5 mi NW 12.7 mph 21.9 mph 0.00 in Snow Light Snow
1:25 PM 23.0 °F 14.7 °F 15.8 °F 74% 29.93 in 6.0 mi WNW 6.9 mph 21.9 mph 0.00 in Snow Light Snow
1:53 PM 23.0 °F 11.1 °F 14.0 °F 68% 29.96 in 5.0 mi NW 12.7 mph - 0.00 in Snow Light Snow
2:48 PM 21.2 °F 9.5 °F 12.2 °F 68% 29.95 in 10.0 mi NW 11.5 mph 17.3 mph 0.00 in   Overcast
2:53 PM 21.9 °F 10.4 °F 10.9 °F 63% 29.99 in 10.0 mi NW 11.5 mph - 0.00 in   Overcast
3:53 PM 21.9 °F 14.5 °F 10.0 °F 60% 30.00 in 10.0 mi NNW 5.8 mph - N/A   Overcast
4:21 PM 19.4 °F 7.9 °F 10.4 °F 68% 29.96 in 10.0 mi NW 10.4 mph - N/A   Overcast
4:32 PM 19.4 °F 10.4 °F 8.6 °F 63% 29.96 in 10.0 mi NW 6.9 mph - N/A   Mostly Cloudy
4:53 PM 19.0 °F 13.9 °F 9.0 °F 65% 30.01 in 10.0 mi NW 3.5 mph - N/A   Clear
5:53 PM 17.1 °F - 8.1 °F 68% 30.03 in 10.0 mi Calm Calm - N/A   Clear
6:53 PM 17.1 °F 10.0 °F 9.0 °F 71% 30.05 in 10.0 mi Variable 4.6 mph - N/A   Clear
7:53 PM 16.0 °F - 8.1 °F 71% 30.05 in 10.0 mi Calm Calm - N/A   Clear
8:53 PM 15.1 °F 6.4 °F 8.1 °F 74% 30.05 in 10.0 mi SSW 5.8 mph - N/A   Clear
9:53 PM 12.9 °F 3.8 °F 8.1 °F 81% 30.05 in 10.0 mi SSW 5.8 mph - N/A   Clear
10:53 PM 12.9 °F 3.8 °F 8.1 °F 81% 30.05 in 10.0 mi South 5.8 mph - N/A   Clear
11:53 PM 12.0 °F 1.5 °F 10.0 °F 92% 30.05 in 10.0 mi SSW 6.9 mph - N/A   Clear